Station Historical Data
Daily Summary for June 27, 2012 Units:  Metric    English   Both
« Previous Day
Next Day »
Daily Weekly Monthly Yearly Custom
  High: Low: Average:
Temperature: 35.3 °C 15.4 °C 25.5 °C
Dew Point: 16 °C 8.9 °C 12.3 °C
Humidity: 68% 25% 46%
Wind Speed: 11.3km/h 0km/h 3.7km/h
Wind Gust: 16.1km/h - -
Wind- - SE
Pressure: 1014.4 hPa 1009.7 hPa -
Precipitation: 0 mm    
Historical Graphs
 
 
Tabular Data for June 27, 2012
Time Temperature Dew Point Pressure Wind Wind Speed Wind Gust Humidity Rainfall Rate (Hourly) Conditions
00:00 20.3 °C 9.3 °C 1010 hPa North 3.2 km/h 4.8 km/h 49% 0 mm
00:05 20.3 °C 9.3 °C 1010 hPa North 3.2 km/h 4.8 km/h 49% 0 mm
00:10 20.3 °C 9.3 °C 1010 hPa North 1.6 km/h 4.8 km/h 49% 0 mm
00:15 20.3 °C 8.9 °C 1010 hPa NNE 1.6 km/h 1.6 km/h 48% 0 mm
00:20 20.3 °C 8.9 °C 1010 hPa North 1.6 km/h 3.2 km/h 48% 0 mm
00:25 20.3 °C 9 °C 1010 hPa NNE 1.6 km/h 4.8 km/h 48% 0 mm
00:30 20.2 °C 9.1 °C 1010 hPa Calm   1.6 km/h 49% 0 mm
00:35 20 °C 9 °C 1010 hPa Calm   1.6 km/h 49% 0 mm
00:40 19.9 °C 8.9 °C 1010.4 hPa Calm   1.6 km/h 49% 0 mm
00:45 19.6 °C 8.9 °C 1010.4 hPa Calm   1.6 km/h 50% 0 mm
00:50 19.5 °C 9.1 °C 1010 hPa NE 1.6 km/h 1.6 km/h 51% 0 mm
00:55 19.6 °C 8.9 °C 1010 hPa NE 1.6 km/h 1.6 km/h 50% 0 mm
01:00 19.7 °C 9 °C 1010 hPa NNE 1.6 km/h 3.2 km/h 50% 0 mm
01:05 19.8 °C 9.1 °C 1010 hPa NNE 1.6 km/h 3.2 km/h 50% 0 mm
01:10 19.8 °C 9.1 °C 1010 hPa NE 1.6 km/h 3.2 km/h 50% 0 mm
01:15 19.8 °C 9.1 °C 1010 hPa NE 1.6 km/h 3.2 km/h 50% 0 mm
01:20 19.8 °C 9.1 °C 1010 hPa Calm   3.2 km/h 50% 0 mm
01:25 19.6 °C 9.2 °C 1010 hPa North 1.6 km/h 6.4 km/h 51% 0 mm
01:31 19.4 °C 9.3 °C 1010 hPa NE 1.6 km/h 4.8 km/h 52% 0 mm
01:36 19.5 °C 9.4 °C 1010 hPa NE 4.8 km/h 8 km/h 52% 0 mm
01:41 19.6 °C 9.5 °C 1010 hPa NNE 3.2 km/h 9.7 km/h 52% 0 mm
01:46 19.6 °C 9.5 °C 1010 hPa NE 4.8 km/h 8 km/h 52% 0 mm
01:51 19.7 °C 9.6 °C 1010 hPa NE 6.4 km/h 6.4 km/h 52% 0 mm
01:56 19.9 °C 9.5 °C 1010 hPa NE 4.8 km/h 9.7 km/h 51% 0 mm
02:01 19.9 °C 9.5 °C 1010 hPa NNE 6.4 km/h 6.4 km/h 51% 0 mm
02:06 19.9 °C 9.5 °C 1010 hPa NNE 3.2 km/h 6.4 km/h 51% 0 mm
02:11 19.8 °C 9.7 °C 1010 hPa NE 1.6 km/h 6.4 km/h 52% 0 mm
02:16 19.7 °C 9.6 °C 1010 hPa NE 4.8 km/h 4.8 km/h 52% 0 mm
02:21 19.6 °C 9.5 °C 1010 hPa NNE 4.8 km/h 8 km/h 52% 0 mm
02:26 19.6 °C 9.7 °C 1010 hPa NNW 3.2 km/h 6.4 km/h 53% 0 mm
02:31 19.5 °C 9.7 °C 1009.7 hPa North 6.4 km/h 9.7 km/h 53% 0 mm
02:36 19.6 °C 9.7 °C 1009.7 hPa NE 4.8 km/h 8 km/h 53% 0 mm
02:41 19.6 °C 9.5 °C 1009.7 hPa NE 6.4 km/h 8 km/h 52% 0 mm
02:46 19.7 °C 9.6 °C 1009.7 hPa NE 4.8 km/h 8 km/h 52% 0 mm
02:51 19.7 °C 9.6 °C 1009.7 hPa NE 4.8 km/h 8 km/h 52% 0 mm
02:56 19.6 °C 9.5 °C 1009.7 hPa NE 6.4 km/h 6.4 km/h 52% 0 mm
03:01 19.6 °C 9.4 °C 1010 hPa NE 6.4 km/h 8 km/h 52% 0 mm
03:06 19.4 °C 9.6 °C 1009.7 hPa NE 3.2 km/h 9.7 km/h 53% 0 mm
03:11 19.4 °C 9.6 °C 1009.7 hPa NE 3.2 km/h 6.4 km/h 53% 0 mm
03:16 19.4 °C 9.6 °C 1009.7 hPa NNE 4.8 km/h 8 km/h 53% 0 mm
03:21 19.4 °C 9.6 °C 1009.7 hPa NNE 3.2 km/h 6.4 km/h 53% 0 mm
03:27 19.2 °C 9.4 °C 1010 hPa NNE 3.2 km/h 6.4 km/h 53% 0 mm
03:32 19 °C 9.5 °C 1010 hPa NNE 3.2 km/h 6.4 km/h 54% 0 mm
03:37 18.9 °C 9.4 °C 1010 hPa NNE 6.4 km/h 6.4 km/h 54% 0 mm
03:42 18.8 °C 9.6 °C 1010 hPa NNE 1.6 km/h 3.2 km/h 55% 0 mm
03:47 18.6 °C 9.3 °C 1010 hPa NNE 3.2 km/h 6.4 km/h 55% 0 mm
03:52 18.6 °C 9.6 °C 1010 hPa NNE 1.6 km/h 4.8 km/h 56% 0 mm
03:57 18.5 °C 9.6 °C 1010 hPa NE 1.6 km/h 4.8 km/h 56% 0 mm
04:02 18.5 °C 9.6 °C 1010 hPa NE 3.2 km/h 4.8 km/h 56% 0 mm
04:07 18.6 °C 9.4 °C 1010 hPa NE 1.6 km/h 4.8 km/h 55% 0 mm
04:12 18.6 °C 9.4 °C 1010 hPa NE 1.6 km/h 4.8 km/h 55% 0 mm
04:17 18.4 °C 9.5 °C 1010 hPa Calm   1.6 km/h 56% 0 mm
04:22 18.4 °C 9.4 °C 1010 hPa NE 4.8 km/h 4.8 km/h 56% 0 mm
04:27 18.4 °C 9.5 °C 1010 hPa NE 3.2 km/h 4.8 km/h 56% 0 mm
04:32 18.4 °C 9.5 °C 1010 hPa ENE 3.2 km/h 4.8 km/h 56% 0 mm
04:37 18.4 °C 9.5 °C 1010 hPa NE 4.8 km/h 4.8 km/h 56% 0 mm
04:42 18.4 °C 9.5 °C 1010 hPa NE 1.6 km/h 4.8 km/h 56% 0 mm
04:47 18.3 °C 9.4 °C 1010 hPa Calm   4.8 km/h 56% 0 mm
04:52 18.2 °C 9.5 °C 1010 hPa ENE 1.6 km/h 4.8 km/h 57% 0 mm
04:57 18.1 °C 9.4 °C 1010 hPa Calm   3.2 km/h 57% 0 mm
05:02 18.1 °C 9.4 °C 1010 hPa Calm   3.2 km/h 57% 0 mm
05:07 17.9 °C 9.6 °C 1010 hPa ENE 1.6 km/h 3.2 km/h 58% 0 mm
05:12 17.9 °C 9.5 °C 1010 hPa NE 1.6 km/h 4.8 km/h 58% 0 mm
05:17 17.8 °C 9.4 °C 1010 hPa NE 3.2 km/h 6.4 km/h 58% 0 mm
05:22 17.7 °C 9.6 °C 1010 hPa NE 1.6 km/h 3.2 km/h 59% 0 mm
05:27 17.5 °C 9.4 °C 1010 hPa NNE 4.8 km/h 4.8 km/h 59% 0 mm
05:32 17.5 °C 9.7 °C 1010.4 hPa NNE 1.6 km/h 4.8 km/h 60% 0 mm
05:37 17.4 °C 9.6 °C 1010.4 hPa Calm   1.6 km/h 60% 0 mm
05:42 16.9 °C 9.6 °C 1010.4 hPa NNE 3.2 km/h 3.2 km/h 62% 0 mm
05:47 16.8 °C 9.5 °C 1010.4 hPa NNE 4.8 km/h 4.8 km/h 62% 0 mm
05:52 17 °C 9.7 °C 1010.4 hPa North 3.2 km/h 4.8 km/h 62% 0 mm
05:57 17 °C 9.7 °C 1010.7 hPa NNE 4.8 km/h 4.8 km/h 62% 0 mm
06:02 16.9 °C 9.6 °C 1010.7 hPa NNE 1.6 km/h 4.8 km/h 62% 0 mm
06:07 16.8 °C 9.7 °C 1011.1 hPa NNE 4.8 km/h 4.8 km/h 63% 0 mm
06:12 16.7 °C 9.6 °C 1011.1 hPa NNE 1.6 km/h 3.2 km/h 63% 0 mm
06:17 16.6 °C 9.5 °C 1011.4 hPa NE 3.2 km/h 3.2 km/h 63% 0 mm
06:22 16.4 °C 9.6 °C 1011.4 hPa Calm   3.2 km/h 64% 0 mm
06:27 16.2 °C 9.6 °C 1011.7 hPa Calm     65% 0 mm
06:33 15.9 °C 9.6 °C 1011.7 hPa Calm     66% 0 mm
06:38 15.7 °C 9.6 °C 1011.7 hPa Calm     67% 0 mm
06:43 15.6 °C 9.7 °C 1012.1 hPa North 3.2 km/h 3.2 km/h 68% 0 mm
06:48 15.4 °C 9.5 °C 1012.1 hPa NNE 3.2 km/h 3.2 km/h 68% 0 mm
06:53 15.6 °C 9.7 °C 1012.1 hPa NNW 1.6 km/h 4.8 km/h 68% 0 mm
06:58 16 °C 9.9 °C 1012.1 hPa NE 8 km/h 8 km/h 67% 0 mm
07:03 16.3 °C 10 °C 1012.1 hPa NNE 6.4 km/h 6.4 km/h 66% 0 mm
07:08 16.8 °C 9.9 °C 1012.1 hPa NE 1.6 km/h 4.8 km/h 64% 0 mm
07:13 17.1 °C 10 °C 1012.1 hPa NE 4.8 km/h 4.8 km/h 63% 0 mm
07:18 17.4 °C 10.1 °C 1012.1 hPa NNE 3.2 km/h 6.4 km/h 62% 0 mm
07:23 17.6 °C 10.3 °C 1012.4 hPa NNE 1.6 km/h 3.2 km/h 62% 0 mm
07:28 17.8 °C 10.4 °C 1012.4 hPa NE 3.2 km/h 4.8 km/h 62% 0 mm
07:33 17.9 °C 10.5 °C 1012.4 hPa NE 1.6 km/h 4.8 km/h 62% 0 mm
07:38 18.1 °C 10.7 °C 1012.8 hPa NNE 1.6 km/h 1.6 km/h 62% 0 mm
07:43 18.3 °C 10.7 °C 1012.8 hPa NNE 4.8 km/h 4.8 km/h 61% 0 mm
07:48 18.3 °C 10.9 °C 1012.8 hPa NE 4.8 km/h 6.4 km/h 62% 0 mm
07:53 18.4 °C 11 °C 1012.8 hPa NNE 3.2 km/h 6.4 km/h 62% 0 mm
07:58 18.6 °C 10.9 °C 1012.8 hPa NE 6.4 km/h 6.4 km/h 61% 0 mm
08:03 18.7 °C 11.1 °C 1012.8 hPa NNE 4.8 km/h 9.7 km/h 61% 0 mm
08:08 18.9 °C 11 °C 1012.8 hPa NE 4.8 km/h 9.7 km/h 60% 0 mm
08:13 19.2 °C 11.3 °C 1012.8 hPa NE 4.8 km/h 8 km/h 60% 0 mm
08:18 19.5 °C 11.3 °C 1013.1 hPa NNE 4.8 km/h 8 km/h 59% 0 mm
08:23 19.8 °C 11.1 °C 1013.1 hPa NE 4.8 km/h 11.3 km/h 57% 0 mm
08:28 20.2 °C 11.4 °C 1013.1 hPa ENE 9.7 km/h 14.5 km/h 57% 0 mm
08:33 20.5 °C 11.7 °C 1013.4 hPa NE 3.2 km/h 9.7 km/h 57% 0 mm
08:38 20.7 °C 11.7 °C 1013.4 hPa NE 4.8 km/h 9.7 km/h 56% 0 mm
08:43 20.9 °C 11.5 °C 1013.4 hPa NE 8 km/h 11.3 km/h 55% 0 mm
08:48 21.1 °C 11.9 °C 1013.4 hPa NE 6.4 km/h 12.9 km/h 56% 0 mm
08:53 21.2 °C 11.6 °C 1013.4 hPa NE 11.3 km/h 14.5 km/h 54% 0 mm
08:58 21.6 °C 12.1 °C 1013.8 hPa NNE 3.2 km/h 11.3 km/h 55% 0 mm
09:03 21.9 °C 12.2 °C 1013.8 hPa East 3.2 km/h 9.7 km/h 54% 0 mm
09:08 22.2 °C 12.2 °C 1013.8 hPa East 6.4 km/h 11.3 km/h 53% 0 mm
09:13 22.4 °C 12.1 °C 1013.8 hPa ESE 8 km/h 9.7 km/h 52% 0 mm
09:18 22.6 °C 12.2 °C 1013.8 hPa ENE 6.4 km/h 9.7 km/h 52% 0 mm
09:24 22.8 °C 12.1 °C 1013.8 hPa East 9.7 km/h 14.5 km/h 51% 0 mm
09:28 22.8 °C 12.2 °C 1013.8 hPa ESE 6.4 km/h 11.3 km/h 51% 0 mm
09:33 23.1 °C 12.7 °C 1013.8 hPa ENE 3.2 km/h 11.3 km/h 52% 0 mm
09:38 23.3 °C 12.6 °C 1013.8 hPa East 3.2 km/h 9.7 km/h 51% 0 mm
09:44 23.6 °C 13.2 °C 1013.8 hPa ESE 4.8 km/h 8 km/h 52% 0 mm
09:49 23.9 °C 12.6 °C 1013.8 hPa East 6.4 km/h 12.9 km/h 49% 0 mm
09:54 23.9 °C 12.6 °C 1013.8 hPa East 6.4 km/h 11.3 km/h 49% 0 mm
09:59 24 °C 12.7 °C 1013.8 hPa SE 4.8 km/h 14.5 km/h 49% 0 mm
10:04 24.3 °C 12.9 °C 1013.8 hPa ESE 8 km/h 11.3 km/h 49% 0 mm
10:09 24.6 °C 12.8 °C 1014.1 hPa East 11.3 km/h 12.9 km/h 48% 0 mm
10:14 24.7 °C 12.9 °C 1014.1 hPa SE 3.2 km/h 11.3 km/h 48% 0 mm
10:19 24.8 °C 12.7 °C 1014.1 hPa East 9.7 km/h 14.5 km/h 47% 0 mm
10:24 25.2 °C 13.4 °C 1014.1 hPa SE 6.4 km/h 12.9 km/h 48% 0 mm
10:29 25.2 °C 13.1 °C 1014.1 hPa East 11.3 km/h 14.5 km/h 47% 0 mm
10:34 25.1 °C 13 °C 1014.1 hPa ESE 4.8 km/h 12.9 km/h 47% 0 mm
10:39 25.3 °C 13.9 °C 1014.1 hPa East 6.4 km/h 9.7 km/h 49% 0 mm
10:44 25.4 °C 13.7 °C 1014.4 hPa ESE 11.3 km/h 11.3 km/h 48% 0 mm
10:49 25.5 °C 13.4 °C 1014.1 hPa East 6.4 km/h 12.9 km/h 47% 0 mm
10:54 25.6 °C 13.4 °C 1014.1 hPa ESE 3.2 km/h 9.7 km/h 47% 0 mm
10:59 25.8 °C 13.7 °C 1014.4 hPa SE 4.8 km/h 12.9 km/h 47% 0 mm
11:04 26 °C 13.8 °C 1014.4 hPa SE 3.2 km/h 11.3 km/h 47% 0 mm
11:09 26.5 °C 14.9 °C 1014.4 hPa ESE 8 km/h 14.5 km/h 49% 0 mm
11:14 26.7 °C 14.1 °C 1014.4 hPa SE 3.2 km/h 9.7 km/h 46% 0 mm
11:19 26.7 °C 13.8 °C 1014.4 hPa SSW 3.2 km/h 12.9 km/h 45% 0 mm
11:24 26.8 °C 13.9 °C 1014.4 hPa ESE 9.7 km/h 11.3 km/h 45% 0 mm
11:29 26.8 °C 14.2 °C 1014.4 hPa SE 3.2 km/h 12.9 km/h 46% 0 mm
11:34 26.9 °C 14.3 °C 1014.1 hPa East 4.8 km/h 9.7 km/h 46% 0 mm
11:39 27.1 °C 14.5 °C 1014.1 hPa ESE 6.4 km/h 9.7 km/h 46% 0 mm
11:44 27.3 °C 13.7 °C 1014.1 hPa SSE 8 km/h 12.9 km/h 43% 0 mm
11:49 27.6 °C 14.3 °C 1014.1 hPa SSW 6.4 km/h 9.7 km/h 44% 0 mm
11:54 27.8 °C 14.1 °C 1014.4 hPa SE 9.7 km/h 14.5 km/h 43% 0 mm
11:59 27.9 °C 14.9 °C 1014.4 hPa SSW 6.4 km/h 11.3 km/h 45% 0 mm
12:04 28.1 °C 14 °C 1014.1 hPa SSW 9.7 km/h 11.3 km/h 42% 0 mm
12:09 28.3 °C 15.3 °C 1014.1 hPa West 3.2 km/h 4.8 km/h 45% 0 mm
12:14 28.8 °C 14.7 °C 1014.1 hPa SE 4.8 km/h 11.3 km/h 42% 0 mm
12:19 28.7 °C 14.1 °C 1014.4 hPa NNE 1.6 km/h 8 km/h 41% 0 mm
12:24 28.8 °C 13.9 °C 1014.4 hPa SSE 1.6 km/h 11.3 km/h 40% 0 mm
12:29 29.1 °C 14.2 °C 1014.4 hPa NNE 4.8 km/h 4.8 km/h 40% 0 mm
12:34 29.1 °C 15.3 °C 1014.4 hPa SSE 8 km/h 8 km/h 43% 0 mm
12:40 29.3 °C 14.3 °C 1014.4 hPa WSW 4.8 km/h 8 km/h 40% 0 mm
12:45 29.4 °C 14.4 °C 1014.4 hPa SSW 6.4 km/h 8 km/h 40% 0 mm
12:50 29.6 °C 14.2 °C 1014.4 hPa ESE 3.2 km/h 4.8 km/h 39% 0 mm
12:55 29.7 °C 14.3 °C 1014.4 hPa NW 1.6 km/h 3.2 km/h 39% 0 mm
13:00 29.6 °C 14.2 °C 1014.4 hPa WNW 4.8 km/h 6.4 km/h 39% 0 mm
13:05 29.5 °C 13.7 °C 1014.4 hPa North 4.8 km/h 8 km/h 38% 0 mm
13:10 29.7 °C 14.7 °C 1014.4 hPa NE 4.8 km/h 4.8 km/h 40% 0 mm
13:15 30.3 °C 15.2 °C 1014.4 hPa NNE 1.6 km/h 4.8 km/h 40% 0 mm
13:20 30.5 °C 13.8 °C 1014.1 hPa East 4.8 km/h 9.7 km/h 36% 0 mm
13:25 30.3 °C 14 °C 1014.1 hPa NE 6.4 km/h 9.7 km/h 37% 0 mm
13:30 30.1 °C 13.8 °C 1014.1 hPa WNW 1.6 km/h 8 km/h 37% 0 mm
13:35 30.6 °C 13.4 °C 1014.1 hPa ESE 11.3 km/h 11.3 km/h 35% 0 mm
13:40 30.6 °C 13 °C 1014.1 hPa NE 4.8 km/h 9.7 km/h 34% 0 mm
13:45 30.3 °C 13.6 °C 1014.1 hPa East 3.2 km/h 4.8 km/h 36% 0 mm
13:50 30.9 °C 13.7 °C 1014.1 hPa NE 4.8 km/h 4.8 km/h 35% 0 mm
13:55 30.7 °C 12.6 °C 1013.8 hPa East 6.4 km/h 8 km/h 33% 0 mm
14:00 30.5 °C 12.4 °C 1013.8 hPa SE 1.6 km/h 9.7 km/h 33% 0 mm
14:05 30.8 °C 13.2 °C 1013.8 hPa ESE 6.4 km/h 12.9 km/h 34% 0 mm
14:10 31.1 °C 13.4 °C 1013.8 hPa ENE 8 km/h 9.7 km/h 34% 0 mm
14:15 30.9 °C 12.8 °C 1013.8 hPa East 8 km/h 8 km/h 33% 0 mm
14:20 31 °C 14.2 °C 1013.8 hPa NNE 4.8 km/h 11.3 km/h 36% 0 mm
14:25 31.1 °C 13.4 °C 1013.8 hPa ESE 3.2 km/h 4.8 km/h 34% 0 mm
14:30 31.2 °C 13.4 °C 1013.8 hPa NNE 11.3 km/h 12.9 km/h 34% 0 mm
14:35 31.2 °C 14.3 °C 1013.4 hPa North 6.4 km/h 6.4 km/h 36% 0 mm
14:40 31.3 °C 13.2 °C 1013.4 hPa North 9.7 km/h 9.7 km/h 33% 0 mm
14:45 31.5 °C 13.3 °C 1013.4 hPa NNW 4.8 km/h 6.4 km/h 33% 0 mm
14:50 31.6 °C 13.3 °C 1013.4 hPa NNE 3.2 km/h 8 km/h 33% 0 mm
14:55 32 °C 13.3 °C 1013.4 hPa NW 3.2 km/h 8 km/h 32% 0 mm
15:00 31.9 °C 13.7 °C 1013.4 hPa North 3.2 km/h 11.3 km/h 33% 0 mm
15:05 32 °C 13.3 °C 1013.4 hPa NW 3.2 km/h 6.4 km/h 32% 0 mm
15:10 32.3 °C 13.5 °C 1013.4 hPa NE 8 km/h 8 km/h 32% 0 mm
15:15 32.2 °C 13.9 °C 1013.4 hPa NW 3.2 km/h 8 km/h 33% 0 mm
15:20 32.3 °C 13.6 °C 1013.1 hPa WNW 4.8 km/h 4.8 km/h 32% 0 mm
15:26 32.5 °C 13.2 °C 1013.1 hPa West 1.6 km/h 6.4 km/h 31% 0 mm
15:31 33 °C 14.1 °C 1013.1 hPa Calm   8 km/h 32% 0 mm
15:36 33.7 °C 14.2 °C 1013.1 hPa SW 1.6 km/h 3.2 km/h 31% 0 mm
15:41 33.7 °C 13.2 °C 1013.1 hPa NNE 8 km/h 9.7 km/h 29% 0 mm
15:46 32.9 °C 11.5 °C 1013.1 hPa NE 3.2 km/h 16.1 km/h 27% 0 mm
15:51 32.8 °C 13.5 °C 1013.1 hPa NNE 3.2 km/h 6.4 km/h 31% 0 mm
15:56 33.2 °C 12.8 °C 1012.8 hPa West 1.6 km/h 8 km/h 29% 0 mm
16:01 33.6 °C 12.6 °C 1012.8 hPa SSW 4.8 km/h 9.7 km/h 28% 0 mm
16:06 33.9 °C 13.9 °C 1012.8 hPa ENE 3.2 km/h 4.8 km/h 30% 0 mm
16:11 34 °C 12.9 °C 1012.8 hPa SE 1.6 km/h 6.4 km/h 28% 0 mm
16:16 34.1 °C 13.1 °C 1012.8 hPa NE 6.4 km/h 8 km/h 28% 0 mm
16:21 33.8 °C 11.7 °C 1012.8 hPa SW 4.8 km/h 9.7 km/h 26% 0 mm
16:26 33.7 °C 12.2 °C 1012.8 hPa NNW 3.2 km/h 8 km/h 27% 0 mm
16:31 33.7 °C 12.1 °C 1012.8 hPa ENE 6.4 km/h 16.1 km/h 27% 0 mm
16:36 33.6 °C 13.7 °C 1012.8 hPa NW 8 km/h 11.3 km/h 30% 0 mm
16:41 33.7 °C 13.8 °C 1012.8 hPa NNW 3.2 km/h 4.8 km/h 30% 0 mm
16:46 33.9 °C 12.9 °C 1012.8 hPa NW 1.6 km/h 6.4 km/h 28% 0 mm
16:51 34.2 °C 14.2 °C 1012.8 hPa WNW 6.4 km/h 6.4 km/h 30% 0 mm
16:56 33.9 °C 12.9 °C 1012.8 hPa NW 6.4 km/h 6.4 km/h 28% 0 mm
17:02 33.9 °C 12.3 °C 1012.8 hPa WNW 6.4 km/h 9.7 km/h 27% 0 mm
17:06 33.9 °C 12.3 °C 1012.8 hPa West 3.2 km/h 8 km/h 27% 0 mm
17:12 34.2 °C 12.5 °C 1012.4 hPa SSW 1.6 km/h 4.8 km/h 27% 0 mm
17:17 34.6 °C 12.3 °C 1012.4 hPa WSW 3.2 km/h 3.2 km/h 26% 0 mm
17:22 34.7 °C 13 °C 1012.4 hPa WNW 4.8 km/h 8 km/h 27% 0 mm
17:27 34.4 °C 12.8 °C 1012.4 hPa NNW 3.2 km/h 8 km/h 27% 0 mm
17:32 34.4 °C 11.6 °C 1012.4 hPa NNW 4.8 km/h 6.4 km/h 25% 0 mm
17:37 34.4 °C 12.8 °C 1012.4 hPa NW 6.4 km/h 6.4 km/h 27% 0 mm
17:42 34.6 °C 12.9 °C 1012.4 hPa WSW 3.2 km/h 3.2 km/h 27% 0 mm
17:47 34.7 °C 13 °C 1012.4 hPa Calm   1.6 km/h 27% 0 mm
17:52 34.7 °C 13 °C 1012.8 hPa NE 3.2 km/h 4.8 km/h 27% 0 mm
17:57 34.8 °C 12.5 °C 1012.8 hPa WSW 1.6 km/h 1.6 km/h 26% 0 mm
18:02 35.3 °C 12.9 °C 1012.4 hPa SSW 3.2 km/h 4.8 km/h 26% 0 mm
18:07 35.2 °C 12.2 °C 1012.4 hPa West 1.6 km/h 4.8 km/h 25% 0 mm
18:12 35.1 °C 13.3 °C 1012.4 hPa Calm   6.4 km/h 27% 0 mm
18:17 35.2 °C 13.9 °C 1012.4 hPa South 8 km/h 9.7 km/h 28% 0 mm
18:22 35.1 °C 14.4 °C 1012.4 hPa SSW 3.2 km/h 6.4 km/h 29% 0 mm
18:27 34.9 °C 13.7 °C 1012.1 hPa SW 4.8 km/h 9.7 km/h 28% 0 mm
18:32 34.7 °C 12.4 °C 1012.1 hPa South 4.8 km/h 8 km/h 26% 0 mm
18:37 34.7 °C 12.9 °C 1012.1 hPa WNW 1.6 km/h 4.8 km/h 27% 0 mm
18:42 34.9 °C 14.2 °C 1012.1 hPa SE 3.2 km/h 8 km/h 29% 0 mm
18:47 34.7 °C 13 °C 1012.1 hPa SW 8 km/h 9.7 km/h 27% 0 mm
18:52 34.4 °C 13.8 °C 1012.1 hPa SSW 4.8 km/h 11.3 km/h 29% 0 mm
18:57 34.6 °C 13.9 °C 1012.1 hPa SW 9.7 km/h 9.7 km/h 29% 0 mm
19:02 34.6 °C 13.4 °C 1012.1 hPa South 4.8 km/h 6.4 km/h 28% 0 mm
19:07 34.7 °C 13.5 °C 1012.1 hPa WSW 3.2 km/h 6.4 km/h 28% 0 mm
19:12 34.4 °C 13.8 °C 1012.1 hPa SW 6.4 km/h 8 km/h 29% 0 mm
19:17 34.4 °C 13.8 °C 1012.1 hPa South 8 km/h 8 km/h 29% 0 mm
19:22 34.4 °C 14.3 °C 1012.4 hPa SW 4.8 km/h 4.8 km/h 30% 0 mm
19:27 34.4 °C 14.3 °C 1012.1 hPa SW 4.8 km/h 6.4 km/h 30% 0 mm
19:32 34.2 °C 14.2 °C 1012.4 hPa SSW 1.6 km/h 4.8 km/h 30% 0 mm
19:37 34.2 °C 13.7 °C 1012.4 hPa SSW 1.6 km/h 4.8 km/h 29% 0 mm
19:42 34.3 °C 14.2 °C 1012.4 hPa South 1.6 km/h 4.8 km/h 30% 0 mm
19:47 34.2 °C 13.6 °C 1012.4 hPa SSW 3.2 km/h 6.4 km/h 29% 0 mm
19:52 34.1 °C 13.6 °C 1012.4 hPa SSW 3.2 km/h 3.2 km/h 29% 0 mm
19:57 34.1 °C 14.1 °C 1012.4 hPa SSE 3.2 km/h 4.8 km/h 30% 0 mm
20:02 33.8 °C 15.3 °C 1012.4 hPa SSE 3.2 km/h 6.4 km/h 33% 0 mm
20:08 33.3 °C 15.3 °C 1012.4 hPa SE 3.2 km/h 3.2 km/h 34% 0 mm
20:13 33.1 °C 16 °C 1012.4 hPa SE 1.6 km/h 3.2 km/h 36% 0 mm
20:18 32.8 °C 15.8 °C 1012.4 hPa SE 3.2 km/h 3.2 km/h 36% 0 mm
20:23 32.6 °C 16 °C 1012.4 hPa SE 3.2 km/h 3.2 km/h 37% 0 mm
20:28 32.3 °C 14.9 °C 1012.4 hPa SE 4.8 km/h 4.8 km/h 35% 0 mm
20:33 32.1 °C 15.2 °C 1012.4 hPa SE 4.8 km/h 4.8 km/h 36% 0 mm
20:38 31.8 °C 15.3 °C 1012.4 hPa SE 3.2 km/h 3.2 km/h 37% 0 mm
20:43 31.6 °C 15.1 °C 1012.4 hPa ESE 3.2 km/h 4.8 km/h 37% 0 mm
20:48 31.3 °C 15.3 °C 1012.4 hPa SE 3.2 km/h 4.8 km/h 38% 0 mm
20:53 30.8 °C 14.9 °C 1012.4 hPa SE 3.2 km/h 4.8 km/h 38% 0 mm
20:58 30.4 °C 14.9 °C 1012.8 hPa SE 3.2 km/h 3.2 km/h 39% 0 mm
21:03 30 °C 15.3 °C 1012.8 hPa Calm   4.8 km/h 41% 0 mm
21:08 29.3 °C 15.1 °C 1012.8 hPa Calm   1.6 km/h 42% 0 mm
21:13 28.7 °C 15.3 °C 1012.4 hPa Calm     44% 0 mm
21:18 28.3 °C 15.2 °C 1012.8 hPa Calm   1.6 km/h 45% 0 mm
21:23 28.1 °C 15 °C 1012.8 hPa SE 1.6 km/h 1.6 km/h 45% 0 mm
21:28 27.8 °C 14.8 °C 1012.8 hPa Calm   1.6 km/h 45% 0 mm
21:33 27.4 °C 15.1 °C 1012.8 hPa Calm     47% 0 mm
21:38 26.9 °C 14.9 °C 1012.8 hPa Calm     48% 0 mm
21:43 26.5 °C 15.2 °C 1012.8 hPa Calm     50% 0 mm
21:48 26.1 °C 14.5 °C 1012.8 hPa Calm     49% 0 mm
21:53 25.7 °C 15.7 °C 1012.8 hPa SW 1.6 km/h 1.6 km/h 54% 0 mm
21:58 25.4 °C 15.7 °C 1012.8 hPa Calm     55% 0 mm
22:03 25.2 °C 15.5 °C 1012.8 hPa SW 1.6 km/h 1.6 km/h 55% 0 mm
22:09 25.5 °C 14.9 °C 1012.8 hPa Calm   1.6 km/h 52% 0 mm
22:14 25.8 °C 14.6 °C 1012.8 hPa Calm   1.6 km/h 50% 0 mm
22:19 25.8 °C 15.8 °C 1012.8 hPa Calm     54% 0 mm
22:24 25.3 °C 15 °C 1013.1 hPa Calm     53% 0 mm
22:29 24.9 °C 14.9 °C 1013.1 hPa Calm     54% 0 mm
22:34 24.6 °C 14.9 °C 1013.1 hPa Calm     55% 0 mm
22:39 24.4 °C 14.8 °C 1013.1 hPa Calm     55% 0 mm
22:44 24.2 °C 14.3 °C 1013.1 hPa Calm     54% 0 mm
22:49 24.2 °C 15.1 °C 1013.1 hPa Calm     57% 0 mm
22:54 24.1 °C 15.1 °C 1013.1 hPa Calm     57% 0 mm
22:59 23.8 °C 14.8 °C 1013.4 hPa Calm     57% 0 mm
23:04 23.5 °C 15.1 °C 1013.4 hPa Calm     59% 0 mm
23:09 23.8 °C 14.8 °C 1013.1 hPa Calm     57% 0 mm
23:14 24.1 °C 15.8 °C 1013.4 hPa SW 1.6 km/h 1.6 km/h 60% 0 mm
23:19 23.8 °C 15 °C 1013.4 hPa Calm   1.6 km/h 58% 0 mm
23:24 23.6 °C 14.9 °C 1013.4 hPa Calm     58% 0 mm
23:29 23.3 °C 15.1 °C 1013.4 hPa Calm     60% 0 mm
23:34 23.1 °C 14.6 °C 1013.4 hPa Calm     59% 0 mm
23:39 22.8 °C 14.6 °C 1013.4 hPa Calm     60% 0 mm
23:44 22.4 °C 14.8 °C 1013.4 hPa Calm     62% 0 mm
23:49 22.6 °C 15.2 °C 1013.4 hPa SW 1.6 km/h 1.6 km/h 63% 0 mm
23:54 22.2 °C 15.8 °C 1013.8 hPa WNW 1.6 km/h 3.2 km/h 67% 0 mm
23:59 22.1 °C 15.9 °C 1013.8 hPa Calm   1.6 km/h 68% 0 mm
Compliments of Weather Underground